This is the latest recevied weather packets stored in our database for station/object OK3FM-14. If no packets are shown the sender has not sent any weather packets the latest 10 day(s).
| Time | Temp. | Humidity | Pressure | Rain* | Wind** | Luminosity | Snow |
|---|---|---|---|---|---|---|---|
| 1787986648 | 21.67° C | 58% | 1018.1 hPa | - | - | - | - |
| 1787986048 | 21.11° C | 60% | 1018 hPa | - | - | - | - |
| 1787985449 | 21.11° C | 61% | 1017.9 hPa | - | - | - | - |
| 1787984848 | 21.11° C | 60% | 1017.8 hPa | - | - | - | - |
| 1787984248 | 21.11° C | 61% | 1018 hPa | - | - | - | - |
| 1787983649 | 20.56° C | 63% | 1017.9 hPa | - | - | - | - |
| 1787983049 | 19.44° C | 68% | 1017.8 hPa | - | - | - | - |
| 1787982448 | 18.89° C | 70% | 1017.7 hPa | - | - | - | - |
| 1787981848 | 18.89° C | 70% | 1017.7 hPa | - | - | - | - |
| 1787981249 | 17.78° C | 74% | 1017.5 hPa | - | - | - | - |
| 1787980650 | 17.78° C | 74% | 1017.4 hPa | - | - | - | - |
| 1787980048 | 16.67° C | 79% | 1017.3 hPa | - | - | - | - |
| 1787979449 | 16.11° C | 83% | 1017.2 hPa | - | - | - | - |
| 1787978849 | 14.44° C | 91% | 1017.2 hPa | - | - | - | - |
| 1787977649 | 14.44° C | 93% | 1017.1 hPa | - | - | - | - |
| 1787977048 | 14.44° C | 95% | 1017.1 hPa | - | - | - | - |
| 1787976448 | 14.44° C | 94% | 1017.1 hPa | - | - | - | - |
| 1787975849 | 14.44° C | 94% | 1016.9 hPa | - | - | - | - |
| 1787975249 | 15° C | 94% | 1016.8 hPa | - | - | - | - |
| 1787974649 | 15° C | 94% | 1016.8 hPa | - | - | - | - |
| 1787974049 | 15° C | 95% | 1016.8 hPa | - | - | - | - |
| 1787973448 | 15° C | 94% | 1016.7 hPa | - | - | - | - |
| 1787972849 | 15° C | 94% | 1016.7 hPa | - | - | - | - |
| 1787972249 | 15° C | 94% | 1016.6 hPa | - | - | - | - |
| 1787971648 | 15° C | 94% | 1016.7 hPa | - | - | - | - |
* Rain since midnight (hover to see other rain measurements)
** Current wind speed in m/s (hover to see current wind gust speed)